Waarnemingen

Advertentie
Mijn weer
Guernsey, Groot Brittannië (3894): temperatuur & dauwpunt: 14.08.2018 21:00:00 - 20.08.2018 21:00:00 (BST)Guernsey, Groot Brittannië (3894): temperatuur -20cm & temperatuur -100cm: 14.08.2018 21:00:00 - 20.08.2018 21:00:00 (BST)Guernsey, Groot Brittannië (3894): windsnelheid & windstoten: 14.08.2018 21:00:00 - 20.08.2018 21:00:00 (BST)Guernsey, Groot Brittannië (3894): windrichting: 14.08.2018 21:00:00 - 20.08.2018 21:00:00 (BST)Guernsey, Groot Brittannië (3894): luchtdruk: 14.08.2018 21:00:00 - 20.08.2018 21:00:00 (BST)Guernsey, Groot Brittannië (3894): zicht: 14.08.2018 21:00:00 - 20.08.2018 21:00:00 (BST)Guernsey, Groot Brittannië (3894): neerslag: 14.08.2018 21:00:00 - 20.08.2018 21:00:00 (BST)
Datum & Tijd tt [°C] td [°C] tt -20cm [°C] tt -100cm [°C] ff [km/u] ff [kn] fx [km/u] fx [kn] dd ppp [hPa] vv [km] rr [mm]
20.08.2018 21:00:00 - - - - - - - - - - - -
20.08.2018 20:00:00 17,8 17,7 - - 13 7 - - WZW 1021,8 2,8 -
20.08.2018 19:00:00 18,1 17,8 - - 13 7 - - W 1021,9 6 -
20.08.2018 18:00:00 18,9 17,9 - - 15 8 - - W 1022,2 10 -
20.08.2018 17:00:00 19,2 18,1 - - 16 9 - - W 1022,5 6 -
20.08.2018 16:00:00 19,7 18,6 - - 16 9 - - W 1022,7 10 -
20.08.2018 15:00:00 19,0 18,8 - - 16 9 - - W 1023,0 3,5 -
20.08.2018 14:00:00 18,9 18,9 - - 16 9 - - W 1022,8 2,8 -
20.08.2018 13:00:00 18,4 18,4 - - 16 9 - - W 1022,9 2,0 -
20.08.2018 12:00:00 18,2 18,2 - - 15 8 - - W 1023,2 0,2 -
20.08.2018 11:00:00 18,8 18,8 - - 18 10 - - W 1023,2 0,3 -
20.08.2018 10:00:00 17,8 17,8 18,4 17,5 16 9 - - W 1023,1 0,3 -
20.08.2018 09:00:00 17,4 17,4 - - 15 8 - - W 1023,0 0,2 -
20.08.2018 08:00:00 17,4 17,4 - - 11 6 - - W 1022,8 0,1 -
20.08.2018 07:00:00 17,3 17,3 - - 13 7 - - W 1022,4 0,1 -
20.08.2018 06:00:00 17,2 17,2 - - 11 6 - - W 1021,8 0,1 -
20.08.2018 05:00:00 17,0 17,0 - - 11 6 - - W 1021,9 0,1 -
20.08.2018 04:00:00 16,9 16,9 - - 11 6 - - NW 1022,3 0,1 -
20.08.2018 03:00:00 17,0 17,0 - - 13 7 - - WNW 1022,5 0,1 -
20.08.2018 02:00:00 17,1 17,1 - - 15 8 - - WNW 1022,5 0,1 -
20.08.2018 01:00:00 17,1 17,1 - - 15 8 - - W 1022,6 0,1 -
20.08.2018 00:00:00 17,1 17,1 - - 15 8 - - W 1022,9 0,1 -
19.08.2018 23:00:00 17,1 17,1 - - 22 12 - - W 1022,7 0,1 -
19.08.2018 22:00:00 17,2 17,2 - - 26 14 - - W 1022,5 0,1 -
19.08.2018 21:00:00 17,4 17,4 - - 22 12 - - W 1022,3 0,2 -
19.08.2018 20:00:00 17,6 17,6 - - 28 15 - - W 1022,1 0,2 -
19.08.2018 19:00:00 17,7 17,7 - - 26 14 - - W 1022,0 0,4 -
19.08.2018 18:00:00 17,7 17,7 - - 28 15 - - W 1022,1 1,8 -
19.08.2018 17:00:00 18,0 17,8 - - 28 15 48 26 W 1022,2 0,9 -
19.08.2018 16:00:00 18,4 17,8 - - 29 16 - - WZW 1022,4 1,4 -
19.08.2018 15:00:00 18,1 17,5 - - 31 17 - - WZW 1022,6 0,8 -
19.08.2018 14:00:00 18,6 17,5 - - 34 18 46 25 WZW 1022,6 3,5 -
19.08.2018 13:00:00 18,2 17,3 - - 26 14 - - WZW 1022,6 3,5 -
19.08.2018 12:00:00 17,6 16,7 - - 26 14 - - WZW 1022,9 8 -
19.08.2018 11:00:00 17,5 16,4 - - 26 14 - - WZW 1022,8 10 -
19.08.2018 10:00:00 17,3 16,0 18,0 17,5 28 15 - - WZW 1022,7 10 -
19.08.2018 09:00:00 17,4 15,7 - - 29 16 - - WZW 1022,6 10 -
19.08.2018 08:00:00 16,2 15,1 - - 24 13 - - WZW 1022,6 10 -
19.08.2018 07:00:00 15,7 14,7 - - 24 13 - - WZW 1022,5 10 0,0
19.08.2018 06:00:00 15,7 15,0 - - 22 12 - - WZW 1022,2 10 -
19.08.2018 05:00:00 15,4 14,8 - - 21 11 - - ZW 1022,5 10 -
19.08.2018 04:00:00 15,4 14,6 - - 22 12 - - WZW 1022,9 10 -
19.08.2018 03:00:00 15,5 14,6 - - 24 13 - - WZW 1023,2 10 -
19.08.2018 02:00:00 15,6 14,7 - - 21 11 - - WZW 1023,4 10 -
19.08.2018 01:00:00 15,7 14,8 - - 16 9 - - WZW 1023,8 20 0,0
19.08.2018 00:00:00 15,7 14,8 - - 16 9 - - WZW 1023,8 10 -
18.08.2018 23:00:00 15,8 14,9 - - 18 10 - - WZW 1023,8 10 -
18.08.2018 22:00:00 15,8 14,6 - - 18 10 - - WZW 1024,0 10 -
18.08.2018 21:00:00 15,9 13,8 - - 18 10 - - W 1023,9 10 -
18.08.2018 20:00:00 16,7 14,4 - - 21 11 - - WZW 1023,7 10 -
18.08.2018 19:00:00 19,2 14,5 - - 22 12 - - WZW 1023,6 10 -
18.08.2018 18:00:00 18,2 14,5 - - 26 14 - - WZW 1023,6 10 -
18.08.2018 17:00:00 18,6 14,5 - - 26 14 - - WZW 1023,7 10 -
18.08.2018 16:00:00 18,9 14,6 - - 26 14 - - WZW 1023,8 10 -
18.08.2018 15:00:00 18,9 14,9 - - 29 16 - - WZW 1024,5 10 -
18.08.2018 14:00:00 18,1 14,3 - - 29 16 - - WZW 1024,5 10 -
18.08.2018 13:00:00 18,3 15,0 - - 28 15 - - ZW 1024,2 10 0,0
18.08.2018 12:00:00 17,9 14,9 - - 22 12 - - WZW 1024,5 10 -
18.08.2018 11:00:00 17,8 15,3 - - 22 12 - - WZW 1024,5 10 -
18.08.2018 10:00:00 17,1 14,6 18,2 17,7 21 11 - - W 1024,3 10 -
18.08.2018 09:00:00 16,6 15,1 - - 18 10 - - WZW 1024,2 10 -
18.08.2018 08:00:00 16,3 15,1 - - 18 10 - - WZW 1023,8 10 -
18.08.2018 07:00:00 15,6 14,7 - - 15 8 - - WZW 1023,6 10 0,0
18.08.2018 06:00:00 15,6 14,6 - - 18 10 - - WZW 1023,2 10 -
18.08.2018 05:00:00 15,2 14,4 - - 16 9 - - WZW 1023,5 10 -
18.08.2018 04:00:00 15,0 14,5 - - 15 8 - - WZW 1023,3 10 -
18.08.2018 03:00:00 15,2 14,6 - - 16 9 - - WZW 1023,4 10 -
18.08.2018 02:00:00 15,2 14,6 - - 15 8 - - WZW 1023,7 10 -
18.08.2018 01:00:00 15,1 14,4 - - 18 10 - - W 1024,3 10 0,0
18.08.2018 00:00:00 15,1 14,3 - - 16 9 - - WZW 1024,6 10 -
17.08.2018 23:00:00 15,0 14,0 - - 16 9 - - W 1024,4 10 -
17.08.2018 22:00:00 15,3 14,1 - - 18 10 - - WZW 1024,4 10 -
17.08.2018 21:00:00 15,1 13,6 - - 15 8 - - W 1024,0 10 -
17.08.2018 20:00:00 16,2 13,0 - - 21 11 - - W 1023,6 10 -
17.08.2018 19:00:00 17,0 12,5 - - 18 10 - - W 1023,2 10 0,0
17.08.2018 18:00:00 17,6 12,1 - - 24 13 - - W 1023,0 10 -
17.08.2018 17:00:00 18,1 11,8 - - 22 12 - - W 1023,0 10 -
17.08.2018 16:00:00 18,5 12,1 - - 22 12 - - W 1023,3 10 -
17.08.2018 15:00:00 18,5 12,4 - - 22 12 - - W 1023,5 10 -
17.08.2018 14:00:00 18,8 11,9 - - 22 12 - - WNW 1023,8 10 -
17.08.2018 13:00:00 17,9 12,2 - - 18 10 - - WNW 1023,5 10 0,0
17.08.2018 12:00:00 17,7 13,2 - - 18 10 - - WNW 1023,5 10 -
17.08.2018 11:00:00 17,3 12,4 - - 18 10 - - NW 1023,4 10 -
17.08.2018 10:00:00 16,6 13,8 17,7 17,7 13 7 - - NW 1022,7 10 -
17.08.2018 09:00:00 16,3 13,5 - - 13 7 - - WNW 1022,1 10 -
17.08.2018 08:00:00 15,6 13,4 - - 11 6 - - WNW 1021,6 10 -
17.08.2018 07:00:00 13,9 13,0 - - 8 4 - - NW 1021,3 10 0,0
17.08.2018 06:00:00 13,6 12,6 - - 8 4 - - NW 1020,8 10 -
17.08.2018 05:00:00 13,9 12,6 - - 11 6 - - NW 1020,1 10 -
17.08.2018 04:00:00 14,0 12,4 - - 11 6 - - NW 1020,0 10 -
17.08.2018 03:00:00 14,0 12,3 - - 11 6 - - NW 1019,8 10 -
17.08.2018 02:00:00 14,2 12,4 - - 13 7 - - NW 1019,7 10 -
17.08.2018 01:00:00 14,4 12,5 - - 13 7 - - NW 1019,5 10 0,0
17.08.2018 00:00:00 14,8 12,5 - - 18 10 - - NW 1019,4 10 -
16.08.2018 23:00:00 14,8 12,1 - - 15 8 - - WNW 1019,0 10 -
16.08.2018 22:00:00 14,8 12,4 - - 13 7 - - WNW 1018,5 10 -
16.08.2018 21:00:00 14,9 13,4 - - 13 7 - - WNW 1018,0 10 -
16.08.2018 20:00:00 16,0 13,1 - - 16 9 - - WNW 1017,5 10 -
16.08.2018 19:00:00 17,1 13,3 - - 18 10 - - WNW 1017,1 10 -
16.08.2018 18:00:00 17,5 13,6 - - 22 12 - - WNW 1016,9 10 -
16.08.2018 17:00:00 17,0 15,7 - - 18 10 - - W 1016,7 10 -
16.08.2018 16:00:00 16,3 15,6 - - 15 8 - - W 1016,6 10 -
16.08.2018 15:00:00 15,7 15,7 - - 11 6 - - W 1016,5 10 -
16.08.2018 14:00:00 15,4 15,4 - - 9 5 - - WNW 1016,0 10 -
16.08.2018 13:00:00 15,3 15,3 - - 18 10 - - WNW 1016,1 6 -
16.08.2018 12:00:00 16,1 16,1 - - 18 10 - - W 1015,9 4,5 -
16.08.2018 11:00:00 16,3 16,3 - - 24 13 48 26 W 1015,7 2,5 -
16.08.2018 10:00:00 16,5 16,5 19,0 17,7 24 13 - - ZW 1015,5 0,3 -
16.08.2018 09:00:00 17,1 16,2 - - 21 11 - - ZW 1015,4 10 -
16.08.2018 08:00:00 17,2 15,9 - - 18 10 - - ZZW 1015,4 10 -
16.08.2018 07:00:00 17,0 15,8 - - 18 10 - - ZZW 1015,9 10 0,0
16.08.2018 06:00:00 16,8 15,7 - - 21 11 - - ZZW 1015,9 10 -
16.08.2018 05:00:00 16,9 15,6 - - 21 11 - - ZZW 1016,0 10 -
16.08.2018 04:00:00 16,9 15,9 - - 18 10 - - ZZW 1016,7 10 -
16.08.2018 03:00:00 17,1 15,5 - - 16 9 - - ZZW 1017,3 10 -
16.08.2018 02:00:00 17,1 15,7 - - 18 10 - - ZW 1017,7 10 -
16.08.2018 01:00:00 17,2 16,2 - - 22 12 - - WZW 1018,2 10 0,0
16.08.2018 00:00:00 16,8 16,4 - - 21 11 - - WZW 1018,4 10 -
15.08.2018 23:00:00 16,7 16,4 - - 21 11 - - WZW 1018,7 10 -
15.08.2018 22:00:00 16,8 16,5 - - 21 11 - - WZW 1019,4 10 -
15.08.2018 21:00:00 16,9 16,4 - - 18 10 - - WZW 1019,2 10 -
15.08.2018 20:00:00 17,4 16,2 - - 21 11 - - WZW 1019,2 10 -
15.08.2018 19:00:00 18,3 16,3 - - 21 11 - - WZW 1019,3 10 -
15.08.2018 18:00:00 18,7 16,2 - - 24 13 - - WZW 1019,7 10 -
15.08.2018 17:00:00 18,3 15,9 - - 21 11 - - ZW 1020,2 10 -
15.08.2018 16:00:00 19,5 15,4 - - 18 10 - - ZW 1020,4 10 -
15.08.2018 15:00:00 19,6 15,8 - - 22 12 - - ZW 1020,8 10 -
15.08.2018 14:00:00 19,0 16,1 - - 26 14 - - WZW 1021,1 10 -
15.08.2018 13:00:00 19,0 17,2 - - 22 12 - - ZW 1021,3 10 -
15.08.2018 12:00:00 18,3 17,1 - - 18 10 - - WZW 1021,7 8 -
15.08.2018 11:00:00 18,2 17,3 - - 18 10 - - WZW 1021,7 7 -
15.08.2018 10:00:00 17,8 16,8 19,0 17,7 16 9 - - WZW 1021,5 9 -
15.08.2018 09:00:00 17,2 16,8 - - 15 8 - - W 1021,5 4,5 -
15.08.2018 08:00:00 16,8 16,8 - - 16 9 - - W 1021,4 8 -
15.08.2018 07:00:00 16,7 16,7 - - 21 11 - - W 1021,0 1,6 -
15.08.2018 06:00:00 16,5 16,5 - - 16 9 - - WZW 1020,8 3,0 -
15.08.2018 05:00:00 16,8 16,7 - - 18 10 - - WZW 1020,9 4,0 -
15.08.2018 04:00:00 16,8 16,6 - - 21 11 - - WZW 1020,9 10 -
15.08.2018 03:00:00 16,8 16,4 - - 16 9 - - WZW 1021,1 10 -
15.08.2018 02:00:00 16,9 15,8 - - 16 9 - - W 1021,3 10 -
15.08.2018 01:00:00 16,9 15,6 - - 18 10 - - WZW 1021,7 10 -
15.08.2018 00:00:00 17,2 14,8 - - 16 9 - - W 1021,9 10 -
14.08.2018 23:00:00 17,0 14,3 - - 18 10 - - W 1021,9 10 -
14.08.2018 22:00:00 16,7 15,0 - - 21 11 - - W 1021,8 10 -
14.08.2018 21:00:00 16,8 16,4 - - 18 10 - - W 1021,5 10 -

tt = temperatuur
td = dauwpunt
tt -20cm = temperatuur -20cm
tt -100cm = temperatuur -100cm
ff = windsnelheid
fx = windstoten
dd = windrichting
ppp = luchtdruk
vv = zicht
rr = neerslag

Weerstations in de omgeving